Total_Precipitation_Accumulation
0.44 0.44 0.44 0.52 0.57 0.58 0.67 0.79 0.76 0.71 0.86 1.32 1.72 2.14 1.61 0.95 0.91 1.28 1.42 1.36 1.45 1.32 1.37 1.71 1.95 2.84 2.93 3.10 2.15 0.87 0.61 0.92 1.27 1.82 1.23 0.99 0.96 1.01 0.82 0.27 0.80 0.87 0.58 0.46 0.62 0.54 0.31
0.44 0.45 0.45 0.53 0.60 0.63 0.74 0.78 0.76 0.78 1.22 2.17 2.04 1.57 0.94 0.64 0.74 0.94 1.28 1.28 1.09 1.02 0.93 1.09 1.71 2.37 1.94 2.51 1.59 0.78 0.64 0.78 0.92 1.54 1.08 0.84 1.06 1.13 0.89 0.52 0.72 0.80 0.71 0.67 1.06 0.71 0.58
0.40 0.44 0.49 0.55 0.59 0.65 0.72 0.75 0.83 1.23 1.88 1.86 1.56 1.09 0.53 0.56 0.74 0.59 0.57 0.76 0.80 0.78 0.74 0.85 1.58 1.67 1.66 2.10 1.04 1.04 0.87 0.96 0.81 1.05 1.04 0.92 0.82 1.28 1.11 0.67 0.47 0.80 1.13 1.20 1.34 1.21 0.77
0.40 0.48 0.50 0.55 0.59 0.64 0.67 0.79 1.33 1.47 1.37 1.32 1.22 0.77 0.49 0.66 0.53 0.48 0.42 0.46 0.47 0.60 0.72 0.99 1.61 1.42 1.94 1.30 0.76 0.89 0.64 0.71 0.83 1.13 1.16 1.11 0.67 0.86 1.18 0.71 0.64 0.76 1.58 1.37 1.54 1.64 1.06
0.47 0.48 0.48 0.48 0.54 0.66 0.84 1.24 1.31 1.02 1.05 1.04 0.86 0.59 0.56 0.49 0.53 0.54 0.47 0.76 0.91 1.00 1.26 1.38 1.36 1.09 2.06 1.64 1.00 0.75 0.39 0.63 1.10 1.43 1.84 1.56 1.06 0.98 1.04 1.02 0.69 0.75 1.06 1.03 1.05 1.30 1.42
0.45 0.40 0.36 0.46 0.63 0.81 1.12 1.15 1.05 0.89 0.79 0.76 0.67 0.55 0.49 0.46 0.55 0.79 0.96 1.00 1.17 1.04 1.49 1.66 1.30 1.41 1.38 1.52 0.94 0.70 0.22 0.69 1.44 2.01 2.73 2.71 1.58 1.21 1.02 0.81 0.54 0.49 0.58 0.63 0.76 0.95 1.36
0.35 0.35 0.41 0.53 0.78 1.11 1.10 1.04 0.93 0.70 0.73 0.72 0.65 0.56 0.57 0.70 0.83 1.20 1.08 1.51 1.98 1.77 1.56 1.51 1.14 0.71 0.74 0.88 1.13 0.62 0.34 1.22 2.03 2.77 2.63 2.11 1.24 0.77 0.77 0.47 0.23 0.08 0.14 0.49 0.55 0.69 1.00
0.35 0.36 0.49 0.71 1.08 1.23 0.96 0.89 0.74 0.76 0.77 0.71 0.61 0.62 0.71 0.86 1.02 1.39 1.29 1.31 1.65 1.60 1.14 0.73 0.65 0.32 0.18 0.37 0.85 0.65 0.73 1.87 2.45 2.77 1.76 1.25 0.64 0.24 0.62 0.53 0.28 0.12 0.24 0.44 0.79 0.57 0.79
0.35 0.42 0.69 0.94 1.29 1.01 0.93 0.71 0.73 0.80 0.79 0.71 0.69 0.73 0.81 0.80 0.96 1.26 0.96 1.04 1.06 1.22 0.99 0.85 1.07 0.54 0.40 0.58 0.61 1.00 1.26 2.34 2.09 1.89 1.17 0.87 0.46 0.28 0.59 0.67 0.28 0.08 0.11 0.24 0.45 0.54 0.68
0.39 0.51 0.73 1.11 1.00 0.93 0.77 0.75 0.93 1.01 0.92 0.95 0.79 0.81 0.85 1.06 1.54 0.94 0.65 0.53 1.15 1.33 1.13 1.53 1.63 1.16 0.63 0.80 1.04 1.04 1.28 1.86 2.02 1.92 1.26 0.97 0.47 0.33 0.54 0.45 0.26 0.14 0.05 0.20 0.22 0.87 0.87
0.50 0.66 0.97 1.11 0.79 0.75 0.69 0.86 1.00 1.03 0.96 0.85 0.90 0.88 1.02 1.42 1.51 0.84 0.59 0.53 1.54 1.58 1.72 1.95 1.68 0.88 0.80 0.88 0.72 0.91 1.27 1.48 1.29 1.39 1.24 1.10 0.60 0.41 0.57 0.37 0.32 0.15 0.06 0.18 0.16 0.93 1.18
0.66 0.83 1.14 0.91 0.84 0.72 0.72 0.81 0.87 0.88 0.89 1.00 1.13 1.17 1.48 1.19 1.00 0.74 0.75 1.02 1.69 1.72 1.90 1.59 1.32 1.14 0.90 0.49 0.30 0.67 1.20 1.11 0.95 1.18 1.19 0.67 0.53 0.84 0.76 0.40 0.18 0.10 0.15 0.19 0.26 0.66 1.37
0.81 0.99 0.96 0.78 0.62 0.64 0.88 0.95 0.92 0.94 1.07 1.13 1.21 1.50 1.57 1.23 0.87 0.90 1.33 1.56 1.57 1.35 1.13 0.92 0.92 0.41 0.22 0.27 0.29 0.75 1.06 0.98 1.21 2.01 1.94 1.48 1.16 1.01 0.69 0.54 0.28 0.14 0.48 1.06 0.94 1.21 0.76
0.87 0.89 0.81 0.69 0.66 0.89 1.02 1.03 1.07 1.16 1.15 1.07 1.56 1.45 1.33 0.95 0.81 1.30 1.87 1.50 1.20 1.11 0.74 0.46 0.14 0.11 0.14 0.13 0.26 0.49 0.87 0.87 0.67 0.78 1.02 1.41 1.17 0.81 0.53 0.38 0.45 0.32 0.48 1.02 0.73 0.60 0.50
0.83 0.80 0.77 0.69 0.88 0.96 1.02 1.05 1.00 1.08 1.23 1.56 1.89 1.80 1.64 1.22 1.06 1.37 1.74 1.27 1.49 0.85 0.49 0.19 0.15 0.20 0.17 0.15 0.20 0.43 0.80 0.54 0.16 0.15 0.41 0.58 0.46 0.35 0.36 0.14 0.38 0.50 0.51 0.38 0.83 0.55 0.66
0.75 0.80 0.77 0.71 0.80 0.99 1.04 1.09 1.17 1.52 1.79 1.97 2.28 2.58 1.75 1.02 1.18 1.64 1.47 1.16 0.78 0.25 0.05 0.04 0.17 0.11 0.06 0.05 0.15 0.23 0.37 0.13 0.08 0.03 0.08 0.12 0.34 0.25 0.29 0.32 0.33 0.40 0.28 0.66 1.29 0.92 0.60
0.72 0.80 0.72 0.78 0.89 1.08 1.27 1.45 1.78 2.17 2.32 2.81 2.19 2.91 2.01 1.18 1.77 1.97 1.33 1.01 0.41 0.07 0.03 0.06 0.05 0.05 0.02 0.02 0.03 0.04 0.04 0.03 0.00 0.00 0.02 0.09 0.16 0.23 0.46 0.40 0.26 0.37 0.58 0.49 0.69 0.62 0.59
0.85 0.84 0.82 0.92 1.05 1.20 1.50 1.55 1.64 2.10 2.52 3.24 3.02 2.48 2.30 1.82 2.25 1.44 0.73 0.65 0.34 0.12 0.05 0.10 0.10 0.04 0.01 0.01 0.01 0.01 0.01 0.02 0.00 0.00 0.01 0.01 0.19 0.27 0.20 0.08 0.08 0.16 0.24 0.30 0.74 0.62 0.39
0.86 0.86 0.90 0.99 1.13 1.18 1.32 1.23 1.22 1.78 2.42 2.74 2.59 2.41 2.79 1.54 0.97 0.60 0.60 0.29 0.22 0.16 0.10 0.13 0.09 0.04 0.01 0.01 0.01 0.01 0.00 0.00 0.00 0.00 0.00 0.06 0.31 0.45 0.37 0.35 0.35 0.32 0.26 0.39 0.46 0.90 0.77
0.93 0.97 1.08 1.13 1.25 1.32 1.32 1.11 1.07 1.57 1.98 2.62 2.20 2.60 3.24 2.26 0.55 0.23 0.31 0.26 0.21 0.09 0.07 0.12 0.14 0.08 0.04 0.02 0.00 0.00 0.00 0.00 0.00 0.00 0.02 0.21 0.45 0.65 0.67 0.55 0.73 0.52 0.28 0.50 1.02 1.37 0.48
0.98 1.10 1.23 1.33 1.35 1.47 1.48 1.49 1.72 2.03 2.16 2.51 1.73 1.19 0.91 1.03 0.46 0.18 0.24 0.22 0.14 0.14 0.11 0.15 0.13 0.09 0.06 0.04 0.01 0.00 0.00 0.01 0.01 0.02 0.13 0.46 0.84 0.93 0.44 0.34 0.63 0.61 0.30 0.43 0.98 0.57 0.57
1.07 1.05 1.17 1.21 1.22 1.19 1.20 1.23 1.60 2.38 2.66 2.14 1.38 0.71 0.31 0.19 0.16 0.14 0.15 0.14 0.10 0.13 0.16 0.15 0.09 0.04 0.05 0.05 0.02 0.01 0.00 0.00 0.01 0.02 0.12 0.33 0.76 0.76 0.47 0.33 0.34 0.33 0.14 0.25 0.55 0.40 0.27
1.09 1.07 1.16 1.26 1.23 1.21 1.18 1.19 1.44 2.21 2.92 2.23 1.37 0.79 0.40 0.33 0.18 0.15 0.08 0.03 0.02 0.11 0.09 0.05 0.06 0.09 0.06 0.04 0.03 0.02 0.01 0.02 0.01 0.02 0.11 0.34 0.51 0.83 0.70 0.40 0.38 0.34 0.19 0.26 0.46 0.43 0.25
1.28 1.43 1.70 1.94 1.95 1.98 2.13 1.94 1.65 1.91 2.52 2.18 1.33 0.88 0.39 0.21 0.09 0.05 0.02 0.01 0.01 0.07 0.10 0.06 0.03 0.08 0.05 0.04 0.05 0.06 0.02 0.02 0.02 0.01 0.04 0.19 0.41 0.81 1.00 0.79 0.79 0.55 0.22 0.32 0.36 0.35 0.29
1.38 1.45 1.53 1.55 1.53 1.56 1.66 1.81 1.87 1.78 1.68 1.41 1.00 0.75 0.44 0.20 0.05 0.05 0.04 0.02 0.03 0.06 0.09 0.13 0.08 0.02 0.05 0.09 0.18 0.22 0.22 0.07 0.00 0.01 0.02 0.07 0.27 0.49 0.53 0.42 0.24 0.26 0.22 0.22 0.31 0.36 0.23
1.33 1.30 1.22 1.11 1.07 1.07 0.95 0.90 1.10 1.22 1.27 1.07 0.87 0.79 0.45 0.33 0.07 0.04 0.06 0.03 0.10 0.17 0.15 0.11 0.11 0.09 0.13 0.25 0.41 0.29 0.14 0.06 0.02 0.02 0.01 0.02 0.14 0.42 0.31 0.33 0.24 0.21 0.03 0.03 0.34 0.44 0.15
1.33 1.23 1.11 1.11 1.12 1.05 0.83 0.74 0.91 0.96 0.85 0.88 0.78 0.62 0.48 0.40 0.05 0.02 0.05 0.04 0.07 0.23 0.26 0.22 0.18 0.23 0.24 0.41 0.44 0.22 0.07 0.05 0.06 0.05 0.04 0.13 0.24 0.38 0.32 0.46 0.27 0.15 0.01 0.04 0.65 0.54 0.05
1.95 1.63 1.50 1.40 1.46 1.37 1.10 0.91 1.00 0.80 0.75 0.85 0.57 0.52 0.61 0.57 0.14 0.02 0.02 0.02 0.09 0.18 0.31 0.30 0.45 0.41 0.53 0.57 0.51 0.27 0.14 0.08 0.04 0.02 0.02 0.06 0.15 0.35 0.39 0.52 0.35 0.04 0.00 0.13 0.25 0.06 0.02
2.46 2.36 2.25 2.07 1.81 1.74 1.40 1.04 1.10 0.88 0.72 0.86 0.59 0.47 0.53 0.73 0.29 0.02 0.01 0.00 0.04 0.12 0.31 0.40 0.50 0.37 0.48 0.75 0.50 0.37 0.21 0.07 0.10 0.08 0.02 0.04 0.05 0.09 0.13 0.20 0.16 0.06 0.01 0.01 0.01 0.00 0.00